• In Uzbekistan
  • List of Countries
  • For 7 days
  • Water Temperature
  • Satellite Maps
  • Weather Map
  • Weather Widgets
  • user-avatar
    Login

    Hourly Weather Lezhe

    Today, 27 March, Monday

    Time Temperature Precipitation Wind Pressure Humidity
    00:00 +6°C° 0 mm 5 mps 738 mmHg 83%
    01:00 +5°C° 0 mm 5 mps 738 mmHg 82%
    02:00 +5°C° 0 mm 5 mps 738 mmHg 81%
    03:00 +3°C° 0 mm 5 mps 739 mmHg 81%
    04:00 +3°C° 0 mm 5 mps 739 mmHg 80%
    05:00 +3°C° 0 mm 5 mps 739 mmHg 79%
    06:00 +5°C° 0 mm 5 mps 739 mmHg 78%
    07:00 +5°C° 0 mm 5 mps 739 mmHg 77%
    08:00 +7°C° 0 mm 4 mps 739 mmHg 72%
    09:00 +8°C° 0 mm 4 mps 739 mmHg 67%
    10:00 +11°C° 0 mm 4 mps 740 mmHg 62%
    11:00 +12°C° 0 mm 4 mps 740 mmHg 60%
    12:00 +13°C° 0 mm 4 mps 740 mmHg 58%
    13:00 +13°C° 0 mm 3 mps 739 mmHg 56%
    14:00 +13°C° 0.1 mm 4 mps 739 mmHg 57%
    15:00 +13°C° 0.1 mm 4 mps 739 mmHg 59%
    16:00 +13°C° 0.1 mm 4 mps 739 mmHg 60%
    17:00 +11°C° 0 mm 4 mps 740 mmHg 66%
    18:00 +9°C° 0 mm 3 mps 740 mmHg 71%
    19:00 +8°C° 0 mm 3 mps 740 mmHg 76%
    20:00 +7°C° 0 mm 3 mps 741 mmHg 76%
    21:00 +7°C° 0 mm 3 mps 741 mmHg 76%
    22:00 +5°C° 0 mm 3 mps 741 mmHg 76%
    23:00 +5°C° 0 mm 3 mps 741 mmHg 76%

    Tomorrow, 28 March, Tuesday

    Time Temperature Precipitation Wind Pressure Humidity
    00:00 +5°C° 0 mm 3 mps 742 mmHg 76%
    01:00 +4°C° 0 mm 3 mps 742 mmHg 75%
    02:00 +4°C° 0 mm 3 mps 742 mmHg 75%
    03:00 +4°C° 0 mm 3 mps 741 mmHg 75%
    04:00 +4°C° 0 mm 3 mps 741 mmHg 75%
    05:00 +5°C° 0 mm 3 mps 741 mmHg 73%
    06:00 +5°C° 0 mm 3 mps 741 mmHg 70%
    07:00 +7°C° 0 mm 3 mps 741 mmHg 68%
    08:00 +9°C° 0 mm 3 mps 742 mmHg 61%
    09:00 +12°C° 0 mm 2 mps 742 mmHg 55%
    10:00 +15°C° 0 mm 2 mps 742 mmHg 48%
    11:00 +16°C° 0 mm 2 mps 741 mmHg 46%
    12:00 +17°C° 0 mm 2 mps 741 mmHg 44%
    13:00 +18°C° 0 mm 2 mps 741 mmHg 42%
    14:00 +17°C° 0 mm 3 mps 741 mmHg 44%
    15:00 +17°C° 0 mm 3 mps 740 mmHg 46%
    16:00 +17°C° 0 mm 3 mps 740 mmHg 47%
    17:00 +13°C° 0 mm 3 mps 740 mmHg 55%
    18:00 +11°C° 0 mm 3 mps 740 mmHg 62%
    19:00 +9°C° 0 mm 3 mps 741 mmHg 69%
    20:00 +9°C° 0 mm 3 mps 741 mmHg 69%
    21:00 +9°C° 0 mm 3 mps 741 mmHg 69%
    22:00 +8°C° 0 mm 3 mps 742 mmHg 68%
    23:00 +8°C° 0 mm 3 mps 742 mmHg 70%

    Day after tomorrow, 29 March, Wednesday

    Time Temperature Precipitation Wind Pressure Humidity
    00:00 +8°C° 0 mm 3 mps 742 mmHg 71%
    01:00 +7°C° 0 mm 2 mps 742 mmHg 72%
    02:00 +7°C° 0 mm 2 mps 742 mmHg 73%
    03:00 +7°C° 0 mm 2 mps 742 mmHg 73%
    04:00 +7°C° 0 mm 2 mps 742 mmHg 74%
    05:00 +8°C° 0 mm 2 mps 742 mmHg 72%
    06:00 +9°C° 0 mm 2 mps 742 mmHg 70%
    07:00 +9°C° 0 mm 3 mps 742 mmHg 68%
    08:00 +13°C° 0 mm 2 mps 742 mmHg 61%
    09:00 +15°C° 0 mm 2 mps 742 mmHg 53%
    10:00 +17°C° 0 mm 2 mps 742 mmHg 46%
    11:00 +18°C° 0 mm 2 mps 741 mmHg 43%
    12:00 +19°C° 0 mm 2 mps 741 mmHg 41%
    13:00 +20°C° 0 mm 2 mps 741 mmHg 39%
    14:00 +20°C° 0 mm 3 mps 741 mmHg 41%
    15:00 +19°C° 0 mm 3 mps 740 mmHg 43%
    16:00 +19°C° 0 mm 3 mps 740 mmHg 46%
    17:00 +17°C° 0 mm 3 mps 740 mmHg 53%
    18:00 +14°C° 0 mm 3 mps 740 mmHg 61%
    19:00 +11°C° 0 mm 3 mps 740 mmHg 68%
    20:00 +11°C° 0 mm 3 mps 741 mmHg 68%
    21:00 +11°C° 0 mm 3 mps 741 mmHg 68%
    22:00 +10°C° 0 mm 2 mps 741 mmHg 68%
    23:00 +10°C° 0 mm 2 mps 741 mmHg 68%

    30 March, Thursday

    Time Temperature Precipitation Wind Pressure Humidity
    00:00 +10°C° 0 mm 2 mps 741 mmHg 69%
    01:00 +9°C° 0 mm 2 mps 741 mmHg 70%
    02:00 +9°C° 0 mm 2 mps 741 mmHg 72%
    03:00 +9°C° 0 mm 2 mps 741 mmHg 73%
    04:00 +9°C° 0 mm 2 mps 741 mmHg 75%
    05:00 +10°C° 0 mm 2 mps 742 mmHg 74%
    06:00 +10°C° 0 mm 2 mps 742 mmHg 72%
    07:00 +11°C° 0 mm 3 mps 742 mmHg 71%
    08:00 +13°C° 0 mm 3 mps 742 mmHg 64%
    09:00 +16°C° 0 mm 3 mps 742 mmHg 57%
    10:00 +18°C° 0 mm 3 mps 742 mmHg 49%
    11:00 +19°C° 0 mm 3 mps 742 mmHg 48%
    12:00 +20°C° 0 mm 3 mps 741 mmHg 47%
    13:00 +20°C° 0 mm 3 mps 741 mmHg 45%
    14:00 +20°C° 0 mm 3 mps 741 mmHg 47%
    15:00 +20°C° 0 mm 4 mps 741 mmHg 49%
    16:00 +19°C° 0 mm 4 mps 741 mmHg 51%
    17:00 +18°C° 0 mm 4 mps 741 mmHg 59%
    18:00 +16°C° 0 mm 3 mps 741 mmHg 67%
    19:00 +13°C° 0 mm 3 mps 742 mmHg 75%
    20:00 +12°C° 0 mm 3 mps 742 mmHg 77%
    21:00 +12°C° 0 mm 3 mps 742 mmHg 79%
    22:00 +12°C° 0 mm 3 mps 743 mmHg 81%
    23:00 +11°C° 0 mm 3 mps 743 mmHg 82%

    31 March, Friday

    Time Temperature Precipitation Wind Pressure Humidity
    00:00 +11°C° 0 mm 3 mps 743 mmHg 83%
    01:00 +11°C° 0 mm 3 mps 742 mmHg 84%
    02:00 +10°C° 0 mm 3 mps 742 mmHg 85%
    03:00 +10°C° 0 mm 3 mps 742 mmHg 85%
    04:00 +10°C° 0 mm 3 mps 742 mmHg 85%
    05:00 +10°C° 0 mm 3 mps 742 mmHg 83%
    06:00 +11°C° 0 mm 3 mps 743 mmHg 80%
    07:00 +12°C° 0 mm 3 mps 743 mmHg 77%
    08:00 +14°C° 0 mm 3 mps 743 mmHg 68%
    09:00 +16°C° 0 mm 3 mps 743 mmHg 59%
    10:00 +18°C° 0 mm 3 mps 743 mmHg 51%
    11:00 +19°C° 0 mm 2 mps 742 mmHg 48%
    12:00 +20°C° 0 mm 2 mps 742 mmHg 45%
    13:00 +21°C° 0 mm 2 mps 742 mmHg 43%
    14:00 +21°C° 0 mm 2 mps 742 mmHg 45%
    15:00 +20°C° 0 mm 3 mps 741 mmHg 48%
    16:00 +20°C° 0 mm 3 mps 741 mmHg 51%
    17:00 +18°C° 0 mm 3 mps 741 mmHg 58%
    18:00 +16°C° 0 mm 3 mps 741 mmHg 65%
    19:00 +14°C° 0 mm 2 mps 741 mmHg 73%
    20:00 +13°C° 0 mm 2 mps 741 mmHg 74%
    21:00 +13°C° 0 mm 2 mps 742 mmHg 75%
    22:00 +12°C° 0 mm 2 mps 742 mmHg 76%
    23:00 +12°C° 0 mm 2 mps 741 mmHg 77%

    1 April, Saturday

    Time Temperature Precipitation Wind Pressure Humidity
    00:00 +12°C° 0 mm 2 mps 741 mmHg 78%
    01:00 +10°C° 0 mm 2 mps 741 mmHg 79%
    02:00 +10°C° 0 mm 2 mps 741 mmHg 80%
    03:00 +10°C° 0 mm 2 mps 741 mmHg 80%
    04:00 +10°C° 0 mm 2 mps 740 mmHg 81%
    05:00 +12°C° 0 mm 2 mps 741 mmHg 78%
    06:00 +13°C° 0 mm 2 mps 741 mmHg 75%
    07:00 +14°C° 0 mm 2 mps 741 mmHg 72%
    08:00 +16°C° 0 mm 2 mps 741 mmHg 65%
    09:00 +18°C° 0 mm 2 mps 740 mmHg 58%
    10:00 +20°C° 0 mm 2 mps 740 mmHg 51%
    11:00 +20°C° 0 mm 2 mps 740 mmHg 51%
    12:00 +20°C° 0 mm 2 mps 740 mmHg 51%
    13:00 +20°C° 0 mm 3 mps 739 mmHg 51%
    14:00 +20°C° 0.2 mm 2 mps 739 mmHg 55%
    15:00 +19°C° 0.2 mm 2 mps 738 mmHg 59%
    16:00 +18°C° 0.2 mm 2 mps 738 mmHg 63%
    17:00 +16°C° 0.1 mm 2 mps 738 mmHg 72%
    18:00 +14°C° 0.1 mm 2 mps 738 mmHg 82%
    19:00 +13°C° 0.1 mm 1 mps 738 mmHg 91%
    20:00 +12°C° 0 mm 1 mps 738 mmHg 91%
    21:00 +12°C° 0 mm 1 mps 738 mmHg 92%
    22:00 +12°C° 0 mm 1 mps 738 mmHg 93%
    23:00 +11°C° 0 mm 1 mps 738 mmHg 93%
    Show more